Theta_e
306 306 306 306 306 307 307 308 309 310 311 312 313 314 317 320 323 325 326 325 324 323 324 325 325 324 325 325 326 327 327 327 327 327 326 326 326 326 326 326 326 327 327 327 327 327 327 326 322 318 322 326 324 323 323 316 309 305 305 309 311 310 310 309 307 306 305 305 304 301 298 294 292 291
305 305 305 304 305 305 305 306 307 307 308 309 310 311 312 315 318 322 324 325 324 323 324 324 323 324 324 325 325 326 327 327 326 326 326 325 326 326 326 326 326 326 327 327 327 327 327 328 324 319 321 326 325 323 323 321 313 307 305 309 311 310 309 308 307 304 301 301 299 297 295 292 291 291
305 305 305 304 304 304 305 305 305 306 306 307 307 308 309 310 313 316 319 321 322 323 324 323 323 324 324 324 325 325 325 326 326 325 325 324 325 326 326 325 325 326 326 327 327 327 327 328 326 321 321 325 325 324 323 322 318 311 306 309 312 311 310 308 307 304 300 298 297 295 294 291 291 291
304 304 304 304 304 304 304 305 305 305 305 306 306 306 307 307 309 312 315 318 319 320 322 323 323 323 324 324 324 324 325 325 325 325 325 325 324 325 326 326 325 326 326 327 327 327 328 328 327 323 321 324 325 324 323 323 321 316 309 309 311 312 311 308 307 305 302 300 296 294 293 291 291 291
303 303 303 303 304 304 304 305 305 305 305 305 305 305 306 306 307 309 312 315 316 317 318 321 322 323 324 324 324 324 324 324 325 325 325 325 324 325 326 326 326 325 326 327 326 326 327 327 327 325 322 324 325 324 323 323 322 319 313 309 311 312 311 310 307 305 304 301 297 295 293 291 291 291
302 302 302 303 303 303 304 304 304 304 304 304 305 305 305 306 306 307 310 312 314 315 316 317 319 321 323 324 324 324 324 324 324 325 325 326 325 325 326 326 326 326 325 326 325 324 325 327 328 326 323 324 326 324 323 323 322 321 317 312 310 312 312 311 308 306 305 302 297 295 293 291 291 291
302 302 302 302 302 302 303 303 303 304 304 304 305 305 305 305 305 305 307 310 312 314 314 315 317 319 321 322 323 323 324 325 325 325 325 326 325 325 326 326 326 326 326 326 325 324 324 326 327 326 324 324 326 324 323 323 322 320 319 315 312 312 312 312 310 307 305 302 297 295 293 291 291 290
302 302 302 302 302 302 302 302 302 303 303 304 304 304 304 304 304 305 305 307 309 312 313 313 315 317 318 320 321 322 323 324 325 326 326 326 326 325 325 326 326 326 325 325 324 323 324 325 326 326 324 324 325 324 322 323 322 321 320 318 314 313 312 312 311 308 306 301 296 295 293 291 290 290
301 302 302 302 301 302 302 302 302 302 302 303 303 303 303 303 304 304 305 305 307 309 310 310 310 312 314 316 318 319 321 323 324 325 326 326 326 326 325 326 325 325 325 324 324 323 323 324 325 325 324 323 324 324 322 322 322 321 321 319 316 314 312 312 311 309 306 300 296 294 293 291 290 290
300 301 302 302 301 302 302 302 302 302 302 302 303 303 303 303 304 304 304 304 305 306 306 307 308 309 310 313 316 317 320 321 322 323 324 325 326 326 325 326 325 325 325 325 324 324 323 323 324 324 323 323 324 323 322 322 322 322 321 320 317 315 314 313 312 310 306 299 295 294 292 291 290 290
298 299 300 300 300 300 301 301 301 301 302 302 302 303 303 303 303 303 303 303 304 304 305 306 307 307 308 311 313 315 317 320 322 322 322 323 324 324 325 325 325 325 325 325 325 325 324 323 322 322 322 323 323 323 323 322 323 322 321 320 318 316 315 313 312 311 306 298 295 294 292 291 291 290
298 298 298 298 298 298 298 299 299 300 301 301 301 301 301 301 302 302 302 302 303 304 304 305 305 306 307 309 310 312 315 318 320 320 321 321 322 323 323 323 324 324 324 325 324 324 324 323 321 320 321 323 324 324 324 323 323 322 321 320 319 317 316 314 312 310 304 297 294 293 292 293 291 290
299 298 298 298 298 297 297 297 298 298 298 299 299 299 300 299 300 300 301 301 302 302 303 304 304 305 306 307 309 311 314 317 317 318 319 320 321 321 321 321 322 323 323 323 323 323 323 322 321 319 319 321 323 324 324 324 323 322 321 320 319 317 316 315 313 309 301 296 294 293 293 293 291 290
298 298 298 297 297 297 297 297 297 296 296 297 297 298 298 299 299 300 300 300 301 301 302 303 304 304 305 306 307 309 311 313 313 315 317 318 319 318 317 318 320 321 321 321 320 321 322 319 317 318 319 320 322 323 323 323 323 322 320 319 319 318 316 315 313 307 299 295 294 293 293 294 292 291
297 297 297 297 296 296 296 296 296 296 296 296 296 296 297 297 298 298 299 300 300 300 301 302 303 304 304 305 305 307 308 309 310 312 315 316 317 316 315 316 318 319 320 319 318 319 321 319 317 317 319 319 321 321 321 321 321 320 320 320 318 317 316 315 312 306 299 295 294 293 295 295 293 292
296 296 296 296 295 295 295 295 295 295 295 295 295 295 295 295 296 296 297 298 299 299 300 301 301 302 303 303 304 305 306 307 308 311 314 315 315 315 314 314 317 317 317 317 316 316 318 318 317 317 318 319 320 319 319 319 318 316 318 318 316 315 315 314 312 306 299 295 293 295 297 297 295 293
294 295 294 294 294 294 294 294 294 294 294 294 294 294 294 294 295 295 296 296 297 298 299 299 299 300 301 301 302 303 305 306 308 310 312 313 314 314 314 314 316 316 315 315 314 314 315 315 315 316 317 318 317 317 317 318 316 314 313 314 314 314 315 315 310 303 297 294 294 297 299 298 296 293
293 293 293 294 293 293 293 294 294 294 294 294 294 294 294 294 294 294 295 295 296 296 297 298 299 299 300 300 301 302 304 306 307 309 310 311 312 313 314 314 315 314 314 314 313 312 313 313 313 313 314 314 314 314 314 315 316 314 313 312 310 310 312 311 306 299 295 294 296 298 299 298 295 291
293 292 293 293 293 293 293 293 293 293 293 293 293 293 294 294 294 294 294 294 295 295 296 297 298 299 299 300 300 301 303 305 306 308 309 309 310 312 312 312 312 312 312 313 312 311 312 312 312 312 312 311 311 312 312 311 311 311 311 309 307 306 306 305 300 296 294 295 297 299 298 296 293 290
292 292 292 292 292 292 292 292 293 293 293 293 293 293 293 293 293 294 294 294 294 295 295 296 296 297 298 299 300 301 302 303 304 305 305 305 306 309 310 310 310 310 311 311 311 311 312 312 311 311 310 309 309 309 309 308 308 307 306 306 305 304 303 300 296 294 294 296 298 298 296 294 291 289
292 291 291 292 292 292 292 292 292 292 292 293 293 293 293 293 293 293 294 294 294 294 295 295 295 296 296 297 298 299 299 300 300 301 301 301 304 307 309 308 308 309 310 310 310 311 311 311 311 309 308 307 308 308 307 307 307 306 304 304 303 301 298 296 294 294 295 297 298 296 294 292 291 289
291 291 291 291 291 291 292 292 292 292 292 292 292 292 292 293 293 293 293 293 294 294 294 295 295 296 296 296 297 297 298 298 299 299 300 302 305 307 308 308 308 308 308 309 309 309 310 310 309 308 305 304 305 306 306 305 304 304 303 302 301 299 296 294 293 294 297 298 297 295 293 291 290 288
291 291 291 291 291 291 291 291 291 291 291 291 291 291 292 292 293 293 293 293 293 294 294 294 295 296 296 297 297 297 298 298 298 299 299 301 305 307 308 308 309 308 307 308 309 308 308 308 308 306 304 302 302 302 302 302 301 301 301 300 299 298 295 293 293 296 298 298 296 295 293 290 289 288
291 291 290 290 290 290 290 290 290 290 290 290 290 290 291 291 292 292 292 293 293 294 294 294 295 295 296 297 297 297 298 298 299 301 301 302 305 308 308 308 308 308 309 309 309 308 307 307 307 306 306 306 302 298 297 298 299 299 299 299 298 297 294 293 294 296 297 297 295 294 291 289 288 288
291 291 290 290 290 290 290 290 290 290 290 290 290 290 290 291 291 291 291 292 292 293 294 294 295 295 296 297 297 298 298 299 300 302 303 303 304 306 308 309 309 308 309 310 310 309 307 307 305 304 303 304 301 297 294 295 295 296 297 297 298 296 293 293 295 296 295 295 294 292 290 288 288 289
290 290 290 290 290 290 290 290 290 290 290 290 290 290 290 290 291 291 291 292 292 293 293 294 295 295 296 297 298 298 298 299 299 300 300 301 302 303 305 308 309 309 309 310 310 309 307 307 306 303 301 301 299 297 294 293 293 294 295 295 296 295 293 294 295 294 293 294 293 292 289 288 288 289
290 290 290 290 290 290 290 290 290 290 290 290 290 290 290 290 290 290 291 291 292 292 293 293 294 295 296 296 297 297 297 297 297 298 298 299 301 302 303 305 308 309 310 310 310 309 308 308 307 305 303 301 297 295 294 293 292 293 293 293 294 293 293 294 294 293 293 293 293 291 289 288 289 291
289 289 289 289 289 289 288 288 289 289 289 289 289 289 289 290 290 290 290 291 291 292 292 293 293 294 295 296 296 296 296 296 297 297 297 298 299 301 303 304 306 308 310 310 310 309 308 308 307 306 305 303 299 297 295 294 293 292 292 292 292 292 293 293 293 292 293 293 291 290 289 289 290 292
288 288 288 288 288 288 288 288 288 289 289 289 289 289 290 290 290 290 290 291 291 292 292 292 293 294 294 295 296 296 296 297 297 297 297 297 298 301 302 303 304 307 309 310 310 309 308 308 308 306 305 303 302 300 297 295 293 292 292 291 291 291 292 291 292 293 293 292 290 289 289 290 291 291
287 287 287 287 288 288 288 288 289 289 289 289 290 290 290 290 290 290 290 290 291 291 292 292 293 293 294 295 296 296 296 296 297 297 297 297 298 299 301 302 304 307 308 309 309 309 308 308 307 306 304 302 302 301 300 297 293 292 292 292 291 291 291 291 292 293 292 290 289 289 290 291 291 291
287 287 287 287 288 288 288 289 289 289 289 289 290 290 290 290 290 290 290 290 291 291 292 292 293 293 294 295 296 296 296 296 296 297 297 297 298 299 301 303 305 306 307 307 308 308 308 307 307 306 304 302 300 300 299 298 295 292 291 292 292 292 292 293 293 292 291 290 290 291 292 292 292 292
287 287 287 288 288 288 289 289 289 289 290 290 290 290 290 290 290 290 290 290 291 291 292 292 293 294 295 295 296 296 296 296 296 297 297 298 299 301 302 304 304 303 303 304 304 304 304 305 305 304 304 303 301 299 298 297 295 293 292 292 293 293 293 293 292 291 291 292 292 292 292 293 292 292
287 287 288 288 288 289 289 289 290 290 290 291 291 291 291 291 290 290 291 291 291 291 291 292 293 294 295 295 296 296 296 296 296 297 298 298 300 301 303 303 302 302 301 301 300 301 301 301 302 302 302 302 301 300 298 296 294 293 292 292 292 292 292 291 292 292 292 293 292 292 292 292 292 292
287 287 288 288 288 289 289 289 290 290 291 291 291 292 291 291 291 291 291 291 291 291 291 292 293 293 294 295 295 296 296 296 297 297 298 299 301 302 302 302 301 301 301 299 299 299 299 299 299 299 299 299 298 298 298 297 294 292 292 292 292 291 291 291 292 293 293 293 292 291 291 291 291 290
287 288 288 288 288 288 289 289 289 290 290 290 291 291 292 292 291 291 291 291 291 291 292 292 292 293 294 294 295 296 296 297 297 298 298 299 301 302 302 301 300 300 300 298 298 298 298 298 298 297 296 296 295 295 296 296 294 293 292 292 292 291 291 292 293 293 292 292 292 291 290 289 289 288
287 287 287 288 288 288 288 289 289 289 289 290 290 291 292 292 291 291 291 291 291 292 292 292 292 293 294 294 295 295 296 296 297 298 298 299 300 301 301 300 299 299 299 297 297 297 297 297 297 296 295 295 294 294 293 294 294 294 293 292 292 292 292 292 293 292 292 291 291 291 290 288 288 288
287 287 287 287 288 288 288 288 288 288 289 289 290 291 292 292 292 292 292 292 292 292 292 293 293 293 294 294 295 295 296 297 297 298 298 299 299 300 299 298 298 298 297 296 296 297 297 296 297 296 295 295 294 293 292 292 293 294 293 293 292 292 293 292 292 292 291 291 291 291 290 289 288 288
287 287 287 287 287 287 287 288 288 288 288 289 289 290 291 292 293 293 293 293 292 292 292 293 294 294 294 295 295 296 296 296 297 297 298 298 298 298 297 296 296 296 295 295 295 296 297 296 296 296 296 295 294 292 292 292 292 292 293 294 293 292 292 292 291 290 290 290 290 290 289 289 288 288
286 286 287 287 287 287 287 287 287 288 288 288 289 290 290 292 293 293 294 294 293 293 293 293 294 295 295 295 296 296 296 296 297 297 297 298 298 297 296 295 295 294 294 294 295 296 296 296 296 296 296 295 294 293 292 292 291 292 293 294 294 293 293 292 290 289 289 289 289 289 288 288 288 287
286 286 286 286 286 287 287 287 287 287 288 288 289 289 290 291 292 293 293 294 294 294 294 294 294 295 296 296 296 297 296 297 297 297 297 297 297 296 296 295 294 294 293 293 294 295 295 295 295 296 295 294 293 293 292 291 291 291 292 293 294 294 294 292 290 289 288 288 288 288 287 287 287 287
286 286 286 286 286 286 286 287 287 287 287 288 289 290 290 291 292 292 293 293 294 294 295 295 295 295 296 296 297 297 296 296 296 296 296 296 296 295 295 294 293 293 293 293 293 293 294 294 295 294 294 293 292 293 292 291 289 289 290 290 291 292 292 292 291 290 289 288 288 288 287 287 287 287
286 286 286 286 286 286 286 286 286 287 287 288 289 290 290 291 291 292 293 293 294 294 295 295 295 296 296 296 297 296 296 295 295 295 295 295 294 294 294 293 293 293 292 292 291 291 292 293 294 293 293 293 293 293 292 290 288 287 288 288 289 289 290 290 291 290 290 289 289 288 287 287 286 286
286 286 286 286 286 286 286 286 286 287 287 288 289 289 290 290 291 292 292 293 294 294 294 295 295 295 296 296 296 296 295 295 295 295 294 294 294 293 293 293 292 292 291 289 289 289 291 292 293 293 293 293 293 292 289 288 287 287 287 287 288 288 288 289 289 289 289 288 289 288 287 287 287 286
285 285 285 286 286 286 286 286 286 286 287 288 288 289 290 290 291 291 292 292 293 293 294 294 294 295 295 295 295 295 295 294 295 294 294 294 293 293 292 292 291 290 289 289 289 289 290 291 292 292 292 291 291 290 288 288 287 287 286 286 287 287 287 287 288 288 287 287 287 287 287 287 287 287
285 285 285 285 286 286 286 286 286 286 287 288 288 289 289 290 290 291 291 292 292 293 293 294 294 294 294 294 294 294 294 294 294 294 293 293 292 292 291 291 290 289 289 289 289 289 290 290 291 291 290 290 289 289 288 288 287 286 286 286 286 287 287 287 287 287 287 287 287 287 287 287 287 286
Wind_Speed
16 16 16 16 15 15 14 14 14 14 14 14 13 13 12 12 8 5 5 5 7 13 14 14 18 19 18 18 20 23 24 25 24 24 25 28 32 33 32 32 32 32 31 31 31 31 33 34 35 35 34 33 32 30 27 25 24 24 23 23 21 20 20 19 16 15 13 12 12 12 11 12 11 11
16 17 18 18 17 16 15 15 15 15 15 16 15 15 14 13 11 9 8 7 10 15 15 15 18 19 18 17 17 20 21 22 22 22 24 27 31 33 32 31 32 32 32 32 31 32 33 35 37 37 36 35 34 32 30 28 26 25 25 24 23 22 22 21 18 16 14 15 15 14 14 14 13 12
18 18 18 18 18 17 16 16 15 15 15 15 16 17 16 15 14 13 12 8 11 16 17 19 22 22 22 21 19 20 21 21 21 21 24 26 29 32 32 31 31 31 33 33 31 31 33 36 38 39 39 38 36 34 33 30 27 26 27 26 25 24 24 22 20 18 16 17 16 15 15 15 14 13
20 20 20 20 19 18 18 17 16 15 15 15 15 15 16 16 15 15 14 10 12 19 20 22 26 26 26 26 24 24 26 25 25 25 26 27 29 32 32 31 30 30 32 32 30 30 34 36 38 39 40 40 38 36 35 33 30 28 28 28 27 26 25 23 21 20 19 18 17 16 15 15 14 13
21 22 22 21 20 19 19 18 17 16 16 16 16 15 15 16 14 14 14 11 12 20 22 21 23 24 24 25 26 26 28 29 29 27 27 27 29 31 32 31 30 29 30 32 31 29 32 37 38 40 41 42 41 38 36 35 32 29 29 29 28 28 27 25 23 21 21 20 17 16 15 15 14 14
19 20 22 22 21 20 20 20 19 18 17 17 17 17 15 15 15 13 14 14 12 16 21 22 22 22 20 22 25 26 28 30 29 27 27 27 28 29 29 30 30 29 29 31 32 27 27 34 39 40 43 43 42 40 38 37 34 31 30 30 30 29 28 26 24 23 23 21 18 17 15 15 15 14
18 19 20 21 21 21 21 22 21 20 19 17 16 17 16 16 17 15 13 15 14 15 20 22 21 20 20 20 22 25 27 30 29 28 27 28 28 28 28 28 29 29 29 30 31 28 26 32 38 41 43 44 44 40 38 38 36 33 32 31 31 31 29 28 26 25 24 22 19 17 16 15 14 14
17 18 19 19 20 20 20 21 21 20 20 19 17 18 18 18 19 18 14 14 15 16 19 21 19 18 20 20 21 22 25 27 28 28 28 28 29 29 28 28 29 30 29 29 29 30 28 30 37 42 43 45 44 42 39 39 38 36 34 33 33 32 30 29 28 27 25 22 20 18 16 15 14 14
17 17 18 19 18 19 19 20 21 21 20 20 20 20 20 20 20 20 17 15 15 16 18 22 22 19 19 21 22 21 22 24 25 26 28 29 30 29 29 29 30 31 30 28 27 30 30 30 35 41 43 45 45 44 41 41 40 39 38 37 35 34 32 30 30 28 25 22 21 19 16 14 14 14
17 17 17 18 18 18 19 20 21 22 21 21 21 21 21 20 19 20 19 18 17 17 18 21 24 22 19 19 22 21 21 23 24 24 25 27 29 29 29 30 30 31 31 29 28 29 31 32 35 40 43 45 46 46 43 41 42 42 41 40 38 35 33 31 31 29 26 23 22 19 16 14 14 14
19 18 18 18 19 18 19 20 21 22 22 21 21 20 20 20 19 19 20 20 19 18 18 19 22 22 19 18 20 21 21 21 22 22 23 24 27 28 28 30 31 31 31 30 29 30 30 32 36 40 43 45 47 47 45 43 44 44 43 42 39 37 34 33 32 31 27 24 22 19 17 15 13 13
21 20 20 20 21 21 21 21 22 22 23 23 24 23 22 22 23 22 22 22 21 19 18 19 21 22 20 18 18 21 20 18 18 20 21 23 26 27 27 29 29 30 30 30 30 30 30 32 35 39 42 45 47 47 46 44 46 47 45 43 41 39 36 34 33 31 28 24 22 20 18 16 13 13
23 22 22 22 22 23 23 22 23 24 24 25 26 26 25 25 25 24 23 22 21 20 18 19 20 21 20 18 16 18 18 16 17 21 20 22 26 26 24 25 27 28 29 30 31 31 32 33 35 38 42 45 48 49 48 47 49 49 47 45 43 41 38 36 34 32 28 24 22 21 19 16 14 13
25 24 24 24 24 24 24 24 25 25 26 26 26 27 27 26 25 24 23 22 21 20 19 19 19 18 18 18 17 18 19 19 21 22 20 20 22 20 16 18 23 27 28 29 30 32 33 31 31 35 40 44 48 49 50 51 52 51 49 46 44 43 41 38 35 32 28 25 24 22 19 17 16 15
27 26 26 26 26 26 26 26 26 26 27 27 27 27 28 28 27 26 25 24 22 21 20 20 20 19 19 20 19 19 21 22 23 24 22 20 19 17 12 11 16 23 27 28 29 31 33 31 30 33 38 43 46 48 50 51 52 51 49 47 46 45 43 39 36 33 29 27 26 23 20 18 17 15
28 28 28 28 27 27 27 27 27 27 27 27 27 28 28 29 29 29 28 28 27 24 22 22 22 22 22 23 22 20 19 20 22 23 22 20 19 18 16 13 15 20 22 22 25 28 31 31 30 34 38 41 45 47 48 49 48 47 48 49 48 45 41 39 37 33 30 28 26 23 20 17 15 14
29 29 29 28 28 27 27 27 27 27 27 27 27 28 29 29 29 29 30 31 30 30 28 27 27 27 25 26 26 23 19 20 22 22 21 20 20 20 20 20 22 22 18 18 22 25 28 28 29 33 37 39 42 43 44 46 45 43 43 45 45 43 41 40 37 33 30 28 25 22 18 15 14 13
29 29 29 29 29 28 27 27 27 27 27 27 28 29 29 30 30 29 29 30 30 32 32 32 33 32 30 29 30 26 22 22 23 23 23 22 22 23 24 24 24 22 20 19 18 18 23 25 26 31 34 34 36 37 38 41 43 42 41 41 42 42 42 40 36 32 30 27 23 20 17 15 14 12
30 29 29 29 29 29 28 27 26 26 26 27 29 30 31 31 31 31 30 29 30 31 32 33 34 34 33 32 33 30 27 25 23 22 22 22 23 25 24 23 23 22 22 20 16 15 19 22 25 28 30 29 30 32 33 34 36 38 40 41 41 40 38 36 33 30 28 24 22 19 17 15 13 11
29 28 28 28 29 29 29 28 27 27 27 29 30 32 32 32 33 33 32 30 31 31 33 34 35 36 35 33 31 29 27 25 23 23 25 25 24 22 20 19 21 23 22 22 21 18 18 21 23 24 25 25 26 27 29 30 31 32 33 34 35 36 35 33 31 28 25 22 20 18 16 14 13 13
29 28 27 27 28 29 29 28 28 27 27 29 31 32 32 32 33 33 31 30 31 31 32 35 36 37 37 37 36 36 34 33 30 28 29 27 23 20 16 13 17 23 24 24 25 22 19 21 21 20 19 20 22 24 26 27 28 29 29 30 32 33 32 30 28 25 23 21 19 17 15 14 14 14
29 29 28 26 27 29 29 28 28 28 28 30 31 31 31 32 32 31 30 30 31 31 31 33 34 35 36 36 37 38 39 37 35 32 30 27 22 20 17 13 16 21 25 27 26 22 18 19 19 17 13 13 18 22 24 25 26 27 27 28 29 29 29 28 26 24 22 19 17 16 14 14 14 14
29 28 28 27 27 29 30 30 31 31 31 33 33 31 30 30 31 30 30 31 32 31 31 32 32 32 33 33 34 35 35 35 34 34 35 31 26 23 21 19 16 12 16 26 29 24 20 19 21 19 11 6 10 17 21 22 23 25 25 26 26 27 28 28 25 22 20 18 17 15 14 15 15 14
30 29 29 30 30 31 32 32 33 33 33 34 35 33 31 31 31 30 31 32 32 32 32 32 31 32 32 32 33 33 33 31 29 30 32 33 30 27 24 24 21 15 16 24 29 29 24 20 22 24 18 7 4 10 17 20 22 23 25 26 26 27 29 28 24 21 18 17 17 16 15 16 16 16
32 32 32 32 32 31 32 32 32 33 33 34 35 35 34 35 35 34 34 34 33 33 33 32 32 32 31 31 31 32 32 30 27 26 27 30 31 29 27 26 25 24 25 26 28 30 27 22 23 25 22 13 5 8 13 16 19 22 24 25 28 29 31 29 25 21 19 18 19 18 17 17 17 16
33 34 34 34 33 33 33 34 34 34 34 35 37 38 38 38 38 37 37 36 34 34 33 32 31 31 30 29 28 29 29 28 27 26 27 28 30 31 30 28 26 28 30 31 31 32 29 26 27 26 23 16 9 10 12 11 15 20 22 24 27 29 31 31 27 23 21 21 21 20 19 17 16 15
35 35 35 35 35 35 36 36 36 37 37 38 40 41 41 41 40 39 38 36 34 33 32 31 30 29 29 28 28 28 29 29 28 28 28 28 29 30 31 31 30 31 33 34 33 33 31 30 29 29 27 22 14 10 10 10 13 20 22 24 27 28 30 31 29 24 23 23 23 21 19 17 16 15
35 36 36 37 38 38 39 40 40 41 41 42 43 43 43 42 41 39 37 34 32 31 30 30 30 29 28 28 28 29 29 29 29 29 28 27 27 28 29 29 28 30 34 35 34 33 34 33 31 31 31 28 21 15 11 11 16 23 24 23 24 26 28 28 27 24 24 23 22 21 19 18 17 17
34 36 38 39 39 40 40 40 40 40 41 42 43 43 43 42 40 38 36 33 31 30 29 28 29 29 29 28 28 27 27 27 27 27 28 27 27 27 28 28 27 29 33 36 35 33 34 35 35 32 31 30 27 22 18 15 18 24 26 24 23 23 25 26 25 25 24 23 21 19 18 17 17 16
34 36 36 37 37 38 39 38 38 38 39 40 40 40 40 39 38 37 36 34 32 31 29 28 29 30 29 28 28 27 26 27 28 28 28 27 27 27 27 27 27 28 30 33 34 33 33 36 36 33 30 29 27 25 23 19 19 23 26 26 23 21 23 25 24 22 22 20 18 17 16 14 12 11
33 33 34 35 36 37 38 37 37 37 38 38 38 38 37 37 37 37 36 36 34 33 31 30 31 31 28 27 27 26 26 28 29 29 27 27 26 26 24 24 25 25 26 28 29 30 32 35 36 33 31 28 24 22 22 21 22 24 24 25 24 23 24 25 22 19 18 17 16 14 12 10 9 9
33 32 33 33 33 33 33 32 32 31 32 33 34 35 35 35 35 36 36 35 34 34 33 31 30 29 27 26 26 26 26 27 28 28 27 27 26 25 23 22 21 20 20 21 23 26 28 32 33 32 31 29 26 24 21 20 23 26 26 24 23 24 26 26 23 20 19 17 15 13 11 10 11 11
31 30 28 28 27 26 26 26 26 26 26 27 29 31 32 32 32 32 32 32 33 33 32 30 29 27 26 25 24 24 25 26 27 27 27 26 25 25 24 23 22 22 21 20 21 24 25 27 27 27 26 24 24 26 24 21 21 26 29 27 25 25 27 26 24 23 22 19 15 13 12 12 12 12
27 25 23 23 23 22 22 22 21 22 23 23 24 26 27 28 29 30 30 31 32 32 31 30 29 27 25 23 23 24 24 25 25 26 26 26 25 25 24 22 21 24 24 23 24 26 26 25 24 22 21 21 20 21 23 24 25 27 28 29 29 28 27 25 25 24 21 18 17 16 16 16 15 14
24 21 20 21 21 21 21 20 20 21 22 22 22 23 24 25 26 27 28 29 30 29 29 28 28 27 26 24 24 25 25 24 23 24 25 26 26 26 25 23 21 23 25 26 27 29 30 31 30 27 22 20 18 13 14 24 31 31 28 26 27 28 27 26 26 23 18 17 19 20 21 20 17 15
21 19 20 20 20 20 21 20 21 22 22 22 22 22 22 22 23 25 28 28 28 27 27 27 27 27 26 26 26 27 26 24 22 23 24 25 25 25 24 22 22 24 25 27 30 33 34 34 35 30 20 13 12 9 7 18 30 34 32 29 26 27 28 26 23 20 18 19 22 23 23 21 18 16
19 20 20 20 21 22 22 22 22 23 22 22 23 22 21 21 22 24 26 26 27 27 27 27 27 27 27 27 27 26 26 24 22 22 23 23 23 22 19 19 21 23 24 26 30 34 34 32 33 30 18 9 7 6 8 15 24 30 33 32 29 27 27 25 21 19 19 22 24 23 22 21 19 16
20 21 21 21 22 23 23 23 23 23 23 23 23 23 22 21 21 23 23 23 25 27 27 27 27 27 27 27 25 24 23 23 21 21 22 22 21 20 19 19 20 21 22 24 27 31 33 31 31 30 23 14 8 7 10 15 20 24 28 31 31 29 26 24 22 21 22 23 22 20 19 19 18 16
22 22 22 22 23 24 24 24 24 23 24 24 23 23 24 23 21 20 20 22 24 26 26 26 27 27 26 26 26 24 22 21 20 19 20 21 21 20 20 21 21 21 23 23 24 26 28 28 28 28 26 20 16 18 22 23 22 23 25 27 28 28 26 24 24 24 23 24 23 20 19 18 17 15
23 23 23 24 24 25 24 24 24 24 24 24 23 23 23 23 22 20 18 19 22 24 25 26 26 26 25 25 25 24 22 21 20 20 20 20 20 21 22 22 22 22 22 21 21 22 24 24 25 25 25 24 27 32 35 31 25 24 24 22 23 25 26 26 28 28 27 26 25 23 21 19 17 15
24 24 25 25 25 25 25 24 24 24 24 24 23 22 21 20 19 19 18 17 19 21 24 25 25 25 24 24 24 23 20 19 19 19 20 21 21 23 26 26 24 23 21 18 18 19 21 22 23 26 29 35 39 38 30 22 18 20 21 19 20 24 25 27 28 29 28 27 26 24 21 18 16 14
24 24 25 26 26 26 25 25 24 24 24 23 22 20 18 16 15 14 14 14 14 17 20 23 24 24 24 23 24 23 21 19 19 20 22 23 23 24 25 25 23 22 21 19 19 23 25 26 29 32 36 39 39 31 19 13 16 21 22 21 20 23 25 27 27 26 24 23 22 21 19 16 13 12
25 25 26 26 26 26 26 25 25 24 23 22 20 18 16 14 11 9 8 8 8 10 13 17 20 22 22 22 22 22 22 22 23 23 24 26 27 26 25 24 24 24 24 25 26 30 32 33 35 38 36 33 32 28 22 20 22 24 25 25 23 22 23 24 24 23 22 20 18 17 16 14 10 9
27 27 26 27 27 26 26 25 25 24 22 21 19 17 14 12 10 7 4 2 4 7 10 14 17 19 21 21 22 22 23 25 26 27 27 28 30 30 29 29 29 29 31 32 31 30 31 33 35 36 32 28 30 31 29 25 25 25 27 29 28 26 25 24 23 22 20 17 13 10 10 9 8 9
28 27 27 27 27 26 26 25 25 24 22 20 18 16 14 12 9 7 4 1 5 9 12 15 18 20 23 24 24 24 25 26 27 29 29 29 30 31 32 32 32 31 32 34 32 29 28 29 31 32 31 29 30 32 32 30 29 29 29 29 29 28 27 26 25 23 20 16 13 10 9 9 10 11
Wind_Direction
335 334 332 329 327 323 319 314 312 314 314 316 321 324 322 316 308 295 289 280 281 285 281 280 289 291 289 287 283 278 274 273 273 273 275 277 277 274 269 264 257 250 243 237 234 234 231 229 229 231 229 222 220 226 231 227 219 220 225 227 226 222 224 228 225 221 226 230 236 247 263 275 278 275
333 331 330 330 330 328 325 319 314 312 311 309 310 312 316 316 311 303 298 286 276 280 278 277 284 288 287 286 283 279 275 274 274 276 279 281 282 279 273 266 260 254 247 240 236 235 233 231 229 229 228 225 223 226 230 230 224 220 223 225 226 225 226 229 230 230 236 242 250 260 271 277 276 273
328 327 327 328 330 330 329 326 324 320 316 313 309 306 307 310 311 308 303 293 282 284 286 286 286 286 285 283 279 276 272 270 271 274 276 279 282 281 275 268 261 257 250 241 237 238 236 232 229 229 228 225 225 227 229 231 229 224 223 225 226 227 228 231 232 234 241 250 259 266 270 273 273 272
326 324 324 324 326 328 326 324 325 325 324 321 316 311 307 304 306 307 302 295 290 291 293 293 291 289 286 282 279 276 272 268 267 268 270 273 276 277 275 269 261 257 250 240 236 241 240 233 229 229 228 226 224 227 229 231 231 228 226 226 227 228 229 232 233 235 242 252 260 263 267 269 268 267
327 325 324 324 326 327 325 323 323 322 321 322 320 318 315 306 302 302 300 296 295 295 297 301 301 299 290 282 281 280 276 274 272 269 267 268 270 272 273 269 262 256 250 241 237 242 241 235 230 228 228 225 224 226 229 230 231 231 230 228 229 229 230 231 233 234 242 251 256 259 263 263 263 263
329 328 325 324 327 328 325 322 321 319 318 319 318 317 318 312 305 302 297 294 295 297 300 304 307 307 296 285 284 283 280 280 279 274 268 266 267 270 271 269 265 259 253 247 243 244 243 238 233 229 227 225 223 224 228 229 231 233 232 230 230 230 230 232 233 234 239 248 253 256 257 256 257 258
324 323 322 322 323 325 323 320 319 319 318 317 315 314 314 312 308 305 298 292 292 295 297 300 306 310 306 296 293 290 284 281 280 275 270 265 265 268 269 269 268 264 259 253 246 244 247 243 236 231 228 225 223 224 226 228 231 234 234 232 231 230 230 231 233 233 237 245 250 251 251 250 251 252
316 313 313 316 318 317 316 315 315 316 316 315 313 310 310 309 307 306 302 293 290 291 293 295 300 307 310 306 302 299 291 283 277 273 269 265 264 266 267 268 271 269 264 258 249 244 246 245 238 233 229 225 223 224 225 227 230 234 235 233 232 231 230 231 233 233 236 243 247 247 245 245 247 249
313 309 305 307 311 310 308 307 308 309 309 309 308 306 306 305 304 304 302 297 292 291 293 294 295 298 304 305 304 304 301 293 282 274 267 263 262 263 264 264 266 267 265 260 252 245 245 245 238 233 230 226 225 225 226 226 229 232 234 233 231 230 229 231 233 233 235 241 243 243 242 242 245 247
309 306 300 301 304 303 302 302 303 304 304 303 302 301 301 301 301 300 300 300 296 292 292 291 291 293 296 300 299 301 306 300 287 277 271 265 261 258 259 260 261 263 263 261 255 248 246 245 240 234 231 228 226 226 226 226 227 230 233 232 231 229 229 231 233 232 234 238 239 240 238 238 241 244
305 303 298 297 298 296 295 296 297 298 300 299 298 297 298 298 298 297 297 298 296 292 290 287 289 290 289 290 290 293 304 302 286 276 271 266 262 257 256 258 259 259 259 259 256 252 248 245 240 235 231 228 227 227 227 227 227 229 231 231 230 229 229 230 231 230 232 234 234 234 234 234 238 243
301 300 298 297 296 296 294 291 291 291 292 294 293 292 293 293 294 293 292 292 290 288 287 285 286 288 286 285 284 286 295 297 288 281 272 264 264 262 259 258 258 255 255 257 256 253 249 245 240 235 230 227 226 228 229 229 228 228 230 230 229 229 228 228 229 228 228 229 228 229 232 233 235 239
298 297 296 296 296 295 294 291 290 288 287 288 288 288 289 289 288 288 286 285 284 283 282 281 282 283 281 280 280 280 283 284 289 293 281 265 264 264 260 257 256 255 256 258 257 255 251 245 238 232 228 226 225 226 228 229 229 228 228 228 227 227 226 226 226 226 225 224 223 225 229 230 229 235
297 296 294 294 293 292 291 290 289 289 288 286 284 283 284 284 284 284 282 280 279 278 277 275 276 277 276 275 272 270 273 277 286 293 288 272 266 263 258 257 257 257 257 254 254 256 254 246 236 231 229 227 225 225 225 226 226 225 226 227 227 225 224 223 223 223 221 221 222 223 226 227 227 231
296 295 293 293 292 290 289 288 287 287 287 285 283 280 278 278 279 279 279 278 276 274 272 272 270 269 271 274 271 269 272 275 279 284 285 278 267 257 248 252 260 262 257 249 248 252 252 247 240 236 233 229 227 227 225 225 225 224 224 226 225 223 221 220 220 219 219 219 220 221 225 229 231 233
296 295 293 291 289 287 287 286 285 285 284 283 282 280 278 277 275 273 272 274 274 272 271 271 269 266 268 271 270 268 271 274 276 278 280 275 264 252 243 240 254 265 262 249 244 248 251 247 241 238 236 234 232 231 229 227 225 223 222 223 221 218 217 219 219 218 217 217 218 221 227 233 233 232
296 294 292 290 287 285 284 284 283 282 281 281 280 280 279 278 276 272 269 269 270 269 269 268 266 265 266 268 268 267 268 271 270 270 271 270 264 255 250 249 254 261 262 248 239 244 249 245 238 237 238 237 235 233 231 230 228 225 223 222 220 216 216 219 218 216 214 214 217 222 228 231 227 225
295 292 290 289 287 286 284 282 281 279 279 279 279 279 278 277 276 274 270 268 267 266 265 264 264 264 263 264 266 267 267 267 265 264 266 268 266 262 260 261 259 257 257 250 239 242 248 243 238 237 237 236 236 235 233 232 231 229 227 223 218 215 215 215 214 212 211 212 217 221 223 223 219 218
293 291 290 288 287 286 284 282 279 277 277 277 277 277 276 275 275 273 271 269 267 264 263 262 263 265 265 264 265 265 265 264 264 265 267 271 275 271 263 258 254 250 251 246 231 235 247 242 237 238 237 235 236 236 234 231 229 227 226 222 217 213 213 212 210 210 210 212 216 217 217 216 212 213
292 291 289 287 286 285 284 282 279 276 276 275 275 275 274 274 274 272 272 272 270 267 265 263 262 264 264 264 263 262 261 261 264 270 274 279 282 272 253 243 242 242 242 236 224 227 242 241 234 236 237 235 234 235 234 233 231 229 226 223 219 216 214 211 207 207 209 213 215 213 211 209 204 210
291 290 288 286 285 284 282 281 280 278 276 274 273 274 274 274 273 272 273 275 273 271 269 266 265 264 264 263 262 262 263 263 266 271 274 277 273 258 242 233 232 234 236 231 222 223 236 239 230 227 232 235 236 237 237 235 232 230 227 222 219 216 212 208 206 207 211 213 212 208 204 199 200 208
290 289 287 284 281 280 280 280 279 278 276 275 274 273 274 273 271 271 274 276 276 275 273 271 269 266 265 264 263 263 263 262 263 262 261 263 257 245 239 236 232 234 235 229 220 217 228 232 223 213 216 231 236 237 238 236 231 227 224 221 219 214 209 206 207 209 212 212 208 205 199 193 196 203
290 288 286 283 280 280 280 280 278 277 275 275 275 274 273 271 269 271 274 275 276 276 274 271 269 266 265 263 262 262 261 260 259 255 252 253 250 243 238 235 233 234 234 228 219 214 219 221 214 205 198 214 237 233 233 233 228 224 220 216 215 212 207 206 208 209 211 212 207 200 193 190 195 200
291 288 285 284 282 281 281 281 279 277 274 273 273 271 268 267 269 273 275 273 273 273 270 269 267 265 264 262 259 259 259 259 256 250 245 244 244 243 239 233 228 231 238 233 222 216 217 217 213 209 205 205 215 213 218 223 222 220 218 215 211 208 204 204 207 211 214 211 201 192 188 192 197 196
290 288 286 286 285 284 283 281 279 277 274 272 271 268 265 265 268 271 272 271 270 269 268 267 265 262 261 258 254 253 252 251 250 248 245 245 245 246 243 236 231 232 239 240 230 219 214 213 209 205 205 211 194 170 191 210 215 214 215 215 212 206 202 202 206 209 206 200 192 188 189 194 196 194
289 288 287 287 286 285 284 282 279 277 274 272 270 267 265 266 267 267 267 267 266 265 264 264 262 258 255 252 249 246 245 245 247 250 252 252 252 251 250 246 240 235 236 241 236 222 213 213 210 199 194 198 188 164 166 184 204 209 209 212 213 208 204 204 205 203 198 193 190 189 190 194 195 190
289 288 288 288 288 288 287 284 281 278 275 273 270 268 266 266 265 265 264 262 261 261 260 260 258 254 251 247 245 245 245 248 252 254 255 256 255 255 256 255 251 244 240 242 239 227 217 218 216 208 201 192 174 163 164 169 187 197 200 205 208 207 207 207 203 199 196 193 191 191 192 193 189 185
289 289 290 291 291 290 289 286 283 280 276 273 271 269 268 266 264 262 259 257 256 255 254 253 253 251 249 245 244 245 246 249 252 253 255 257 255 255 256 258 260 254 244 241 240 231 222 220 220 217 211 199 185 177 177 173 179 185 187 192 200 205 207 206 201 196 194 193 193 193 192 188 186 191
292 292 293 293 293 292 290 288 285 280 277 274 272 270 268 266 262 258 255 252 250 249 247 247 248 249 247 245 245 246 246 248 250 251 254 257 256 255 255 257 262 260 247 239 238 234 226 223 223 218 211 205 200 192 182 172 174 179 180 178 184 196 201 198 195 193 189 189 192 190 187 187 192 201
298 297 296 295 294 292 290 287 283 279 276 275 273 271 268 264 259 254 250 247 244 243 243 243 244 246 246 245 244 244 244 245 246 248 251 254 254 254 253 254 255 253 244 236 235 234 228 223 222 216 205 201 202 199 190 176 165 171 178 175 170 177 187 188 188 187 185 187 188 185 184 189 198 211
302 300 298 297 295 292 290 288 284 281 277 275 272 269 265 260 255 251 247 243 240 240 240 240 242 244 244 241 238 237 238 241 245 247 247 248 249 249 247 243 239 234 229 226 226 227 223 220 219 215 205 196 193 194 193 182 165 163 171 174 168 166 172 177 176 178 182 183 178 175 180 188 198 211
305 303 301 300 297 294 292 290 287 284 279 275 271 266 262 257 252 249 246 242 239 239 239 239 240 240 237 234 231 233 237 240 244 245 243 241 243 242 234 226 218 209 205 207 207 208 211 212 213 213 208 202 193 184 177 173 169 165 163 166 167 163 163 166 166 169 173 170 165 170 183 193 200 202
309 306 303 300 298 295 293 290 289 286 282 278 273 268 262 256 251 246 242 238 236 236 235 236 236 234 231 228 227 230 236 239 242 243 240 237 237 232 223 214 204 192 183 180 182 186 192 197 200 199 200 199 192 183 171 161 161 164 161 159 158 156 158 161 161 163 166 165 166 174 179 180 183 181
311 305 303 301 299 298 296 294 292 291 289 285 281 276 267 258 249 244 239 235 234 234 232 232 233 232 230 228 227 229 233 237 239 240 239 235 229 220 211 204 197 190 181 170 167 169 171 174 174 171 170 168 167 174 177 167 156 154 156 155 154 155 159 163 162 163 167 170 170 164 156 155 157 158
309 305 304 304 303 302 300 298 297 297 296 295 294 290 278 262 250 243 238 236 234 232 230 230 231 230 229 228 228 229 230 233 235 236 235 231 221 211 204 197 188 183 175 164 161 161 160 158 152 143 140 141 135 139 167 167 157 150 148 150 155 158 161 164 165 164 168 176 173 159 146 144 149 151
311 310 309 307 307 307 305 304 304 303 302 303 305 301 285 266 251 243 240 238 234 229 228 228 228 227 226 226 228 229 228 228 228 227 225 219 209 202 198 192 182 176 170 164 162 160 159 157 152 143 134 134 130 114 131 158 161 159 153 151 158 162 162 163 165 167 170 174 172 162 152 149 153 155
314 315 314 311 311 311 309 308 309 308 307 310 312 307 294 275 260 251 246 241 233 228 226 226 225 224 224 224 226 228 225 222 221 219 214 208 199 190 182 175 171 169 165 162 163 161 159 158 155 149 141 134 135 122 117 141 156 162 158 155 158 163 165 164 163 165 169 169 169 168 164 158 154 154
320 319 318 316 316 316 315 314 314 313 314 316 316 313 307 297 280 264 251 240 232 228 226 224 223 223 222 221 223 224 220 216 214 211 204 195 186 176 167 160 159 158 155 155 159 161 161 161 159 155 150 144 139 144 141 141 149 160 165 163 161 162 166 166 160 158 162 164 164 166 163 155 149 147
327 325 323 322 322 322 320 319 318 317 318 319 318 316 315 311 299 279 257 241 234 229 225 223 223 222 221 220 219 217 213 207 204 201 194 186 177 168 159 152 149 148 146 149 156 161 164 165 164 162 158 153 151 153 148 141 143 156 166 169 166 164 166 165 158 154 155 155 153 149 146 144 144 146
331 330 329 327 326 326 324 323 322 322 322 323 323 321 318 313 305 293 273 252 239 230 224 222 221 220 218 215 212 209 205 202 200 195 185 177 169 160 151 145 144 144 143 144 150 158 162 165 167 164 155 144 140 140 136 129 130 141 152 162 169 172 171 168 161 154 150 150 148 144 140 142 146 151
335 334 334 333 332 331 329 328 328 328 328 328 329 327 322 313 304 296 286 270 252 237 227 222 219 216 214 211 207 202 197 193 190 183 172 163 156 151 148 144 142 142 141 139 141 147 152 158 159 154 143 135 133 132 129 122 119 125 132 145 162 170 172 173 171 162 154 152 150 143 140 146 151 155
338 338 338 338 338 336 335 334 335 335 335 335 335 332 327 317 305 296 289 280 264 247 233 224 217 213 209 206 202 196 187 177 169 163 156 149 143 141 141 141 141 141 138 134 133 135 138 143 146 141 136 135 135 131 125 122 121 119 120 130 147 157 162 168 170 166 161 162 160 152 148 149 149 150
343 343 343 342 341 340 340 341 342 342 342 342 342 339 333 326 317 306 294 279 257 236 222 212 206 201 197 193 189 183 174 165 157 151 148 145 141 139 138 138 138 136 130 124 125 129 131 135 138 137 134 135 134 129 122 122 123 119 118 122 131 139 146 152 156 156 156 160 166 166 164 162 156 154
347 347 347 346 345 344 345 347 348 350 351 351 351 350 346 342 340 335 320 272 201 181 176 176 176 175 173 171 168 164 160 157 153 148 146 145 143 141 139 136 133 130 127 124 124 127 129 132 135 136 133 131 130 128 125 124 123 119 118 120 123 125 127 132 138 142 143 145 149 156 159 152 138 138
351 351 351 351 349 349 351 353 355 357 359 1 1 1 1 1 5 14 23 93 148 149 149 150 152 154 155 154 153 150 149 149 148 145 143 143 141 139 137 135 131 129 129 129 127 126 126 126 128 129 127 125 127 128 127 125 124 121 119 119 119 121 125 130 133 132 127 124 125 125 123 120 119 127